TimePST,TemperatureF,Dew PointF,Humidity,Sea Level PressureIn,VisibilityMPH,Wind Direction,Wind SpeedMPH,Gust SpeedMPH,PrecipitationIn,Events,Conditions,WindDirDegrees,DateUTC
12:29 AM,25.0,21.0,85,30.01,9.0,SSW,6.9,-,N/A,,Overcast,210,2014-02-11 08:29:00
12:51 AM,24.8,21.2,86,30.01,8.0,SSW,9.2,-,N/A,,Overcast,200,2014-02-11 08:51:00
12:53 AM,25.0,21.0,85,30.06,8.0,SSW,8.1,-,N/A,,Overcast,200,2014-02-11 08:53:00
1:53 AM,25.0,21.0,85,30.07,8.0,South,8.1,-,N/A,,Overcast,190,2014-02-11 09:53:00
2:53 AM,25.0,21.9,88,30.06,7.0,SSW,6.9,-,0.00,,Overcast,210,2014-02-11 10:53:00
3:53 AM,25.0,21.0,85,30.08,8.0,SW,3.5,-,N/A,,Overcast,220,2014-02-11 11:53:00
4:53 AM,25.0,21.0,85,30.07,7.0,South,9.2,-,N/A,,Overcast,180,2014-02-11 12:53:00
5:53 AM,25.0,21.0,85,30.09,7.0,South,5.8,-,N/A,,Overcast,180,2014-02-11 13:53:00
6:17 AM,25.0,21.0,85,30.03,7.0,SW,4.6,-,N/A,,Overcast,220,2014-02-11 14:17:00
6:53 AM,25.0,21.0,85,30.09,8.0,SSW,3.5,-,N/A,,Overcast,200,2014-02-11 14:53:00
7:49 AM,26.6,21.2,80,30.07,6.0,NNE,3.5,-,N/A,,Haze,20,2014-02-11 15:49:00
7:53 AM,26.1,21.0,81,30.12,6.0,NNW,3.5,-,N/A,,Haze,340,2014-02-11 15:53:00
8:48 AM,26.6,21.2,80,30.08,7.0,Calm,Calm,-,N/A,,Overcast,0,2014-02-11 16:48:00
8:53 AM,26.1,21.9,84,30.13,7.0,Calm,Calm,-,N/A,,Overcast,0,2014-02-11 16:53:00
9:53 AM,27.0,21.9,81,30.15,8.0,Calm,Calm,-,N/A,,Overcast,0,2014-02-11 17:53:00
10:20 AM,27.0,21.9,81,30.11,8.0,East,3.5,-,N/A,,Overcast,100,2014-02-11 18:20:00
10:53 AM,27.0,21.9,81,30.18,8.0,Calm,Calm,-,N/A,,Overcast,0,2014-02-11 18:53:00
11:53 AM,28.0,21.9,78,30.18,9.0,SSW,4.6,-,N/A,,Overcast,200,2014-02-11 19:53:00
12:53 PM,28.9,21.9,75,30.17,10.0,South,3.5,-,N/A,,Overcast,170,2014-02-11 20:53:00
1:53 PM,30.0,23.0,75,30.16,10.0,Calm,Calm,-,N/A,,Scattered Clouds,0,2014-02-11 21:53:00
2:53 PM,30.0,23.0,75,30.15,10.0,Calm,Calm,-,N/A,,Clear,0,2014-02-11 22:53:00
3:53 PM,30.9,23.0,72,30.13,10.0,Calm,Calm,-,N/A,,Clear,0,2014-02-11 23:53:00
4:53 PM,28.9,23.0,78,30.10,10.0,Calm,Calm,-,N/A,,Clear,0,2014-02-12 00:53:00
5:53 PM,27.0,21.9,81,30.08,10.0,South,4.6,-,N/A,,Partly Cloudy,170,2014-02-12 01:53:00
6:53 PM,28.0,23.0,81,30.05,7.0,Calm,Calm,-,N/A,,Overcast,0,2014-02-12 02:53:00
7:50 PM,28.4,24.8,86,29.96,2.5,WSW,3.5,-,0.00,Snow,Light Snow,250,2014-02-12 03:50:00
7:53 PM,28.0,24.1,85,30.01,2.5,WSW,3.5,-,0.00,Snow,Light Snow,250,2014-02-12 03:53:00
8:04 PM,28.0,24.1,85,29.95,1.5,Calm,Calm,-,0.00,Snow,Light Snow,0,2014-02-12 04:04:00
8:32 PM,28.0,24.1,85,29.92,2.0,Calm,Calm,-,0.01,Snow,Light Snow,0,2014-02-12 04:32:00
8:42 PM,28.0,25.0,88,29.92,1.8,Calm,Calm,-,0.01,Snow,Light Snow,0,2014-02-12 04:42:00
8:53 PM,28.0,24.1,85,29.96,1.5,Calm,Calm,-,0.01,Snow,Light Snow,0,2014-02-12 04:53:00
9:53 PM,28.9,26.1,89,29.91,1.5,Calm,Calm,-,0.04,Snow,Light Snow,0,2014-02-12 05:53:00
10:10 PM,28.9,27.0,92,29.85,2.0,Calm,Calm,-,0.01,Snow,Light Snow,0,2014-02-12 06:10:00
10:32 PM,28.9,27.0,92,29.84,2.0,Calm,Calm,-,0.02,Snow,Light Snow,0,2014-02-12 06:32:00
10:41 PM,28.9,27.0,92,29.82,1.8,Calm,Calm,-,0.02,Snow,Light Snow,0,2014-02-12 06:41:00
10:53 PM,30.0,28.0,92,29.86,1.8,Calm,Calm,-,0.03,Snow,Light Snow,0,2014-02-12 06:53:00
11:15 PM,30.0,28.0,92,29.79,2.0,Calm,Calm,-,0.02,Snow,Light Snow,0,2014-02-12 07:15:00
11:33 PM,28.9,27.0,92,29.77,1.8,South,3.5,-,0.03,Snow,Light Snow,180,2014-02-12 07:33:00
11:53 PM,30.0,28.0,92,29.79,2.0,South,5.8,-,0.04,Snow,Light Snow,180,2014-02-12 07:53:00